DW8626 Madrid ES current weather conditions

sailwx.info

Wind from 222

Air temperature 26.7° C
Dewpoint 7.6° C

Last reported at 2016-Aug-31 20:47 UTC.
Time now 2016-Aug-31 21:49 UTC

Location: N 40°29' W 003°43'.
View on Google Maps.

See reports from other nearby stations

  
Tides and Currents Weather Stations Pressure Air Temp Water Temp Dewpoint Dewpoint Depression Visibility Wind Speed Wind Dir Waves Ship Positions
date/time (UTC)wind fromknots sea level pressurealtimeterstation pressurevisibilityair tempwater tempwave heightnotes
2016-Aug-31 20:47 222 26.7
2016-Aug-31 20:32 222 27.8
2016-Aug-31 20:17 222 27.8
2016-Aug-31 20:02 222 28.3
2016-Aug-31 19:47 222 28.9
2016-Aug-31 19:32 207 28.9
2016-Aug-31 19:17 237 29.4
2016-Aug-31 19:02 210 30.0
2016-Aug-31 18:47 222 30.0
2016-Aug-31 18:32 259 30.6
2016-Aug-31 18:17 268 31.1
2016-Aug-31 18:02 273 0 gusting 4 31.1
2016-Aug-31 17:47 228 31.7
2016-Aug-31 17:32 212 3 gusting 6 31.7
2016-Aug-31 17:17 246 31.7
2016-Aug-31 17:02 224 31.7
2016-Aug-31 16:47 141 6 gusting 9 31.7
2016-Aug-31 16:32 191 0 gusting 9 32.2
2016-Aug-31 16:17 148 0 gusting 7 31.7
2016-Aug-31 16:02 255 0 gusting 5 31.7
2016-Aug-31 15:47 237 3 gusting 7 31.7
2016-Aug-31 15:32 113 32.2
2016-Aug-31 15:17 155 31.7
2016-Aug-31 15:02 130 31.7
2016-Aug-31 14:47 113 31.1
2016-Aug-31 14:32 131 1 gusting 6 31.1
2016-Aug-31 14:17 207 0 gusting 6 31.7
2016-Aug-31 14:02 160 5 gusting 8 31.1
2016-Aug-31 13:47 165 4 gusting 7 31.7
2016-Aug-31 13:32 298 30.6
2016-Aug-31 13:17 203 30.6
2016-Aug-31 13:02 170 2 gusting 5 30.0
2016-Aug-31 12:47 249 29.4
2016-Aug-31 12:32 066 0 gusting 5 28.3
2016-Aug-31 12:17 039 28.9
2016-Aug-31 12:02 083 29.4
2016-Aug-31 11:47 106 28.9
2016-Aug-31 11:32 111 27.8
2016-Aug-31 11:17 119 27.2
2016-Aug-31 11:02 083 0 gusting 5 27.2
2016-Aug-31 10:47 316 26.1
2016-Aug-31 10:32 110 27.2
2016-Aug-31 10:17 074 26.1
2016-Aug-31 10:02 172 0 gusting 4 25.6
2016-Aug-31 09:47 015 25.0
2016-Aug-31 09:32 191 25.6
2016-Aug-31 09:17 139 24.4
2016-Aug-31 09:02 019 23.3
2016-Aug-31 08:47 090 23.3
2016-Aug-31 08:32 148 23.3
2016-Aug-31 08:17 065 22.8
2016-Aug-31 08:02 082 22.8
2016-Aug-31 07:47 133 22.8
2016-Aug-31 07:32 131 23.3
2016-Aug-31 07:17 117 22.8
2016-Aug-31 07:02 026 22.2
2016-Aug-31 06:47 093 21.7
2016-Aug-31 06:32 082 21.1
2016-Aug-31 06:17 065 20.6
2016-Aug-31 06:02 077 20.6
2016-Aug-31 05:47 077 20.6
2016-Aug-31 05:32 108 20.6
2016-Aug-31 05:17 106 21.1
2016-Aug-31 05:02 052 0 gusting 5 21.1
2016-Aug-31 04:47 049 21.1
2016-Aug-31 04:32 023 0 gusting 4 21.1
2016-Aug-31 04:17 084 3 gusting 6 21.1
2016-Aug-31 04:02 049 21.7
2016-Aug-31 03:47 045 4 gusting 5 21.7
2016-Aug-31 03:32 025 4 gusting 6 21.7
2016-Aug-31 03:17 039 4 gusting 7 21.7
2016-Aug-31 03:02 030 5 gusting 6 21.1
2016-Aug-31 02:47 025 4 gusting 7 21.7
2016-Aug-31 02:32 045 5 gusting 6 21.7
2016-Aug-31 02:17 020 21.7
2016-Aug-31 02:02 354 22.2
2016-Aug-31 01:47 032 1 gusting 6 22.8
2016-Aug-31 01:32 058 1 gusting 6 22.8
2016-Aug-31 01:17 026 22.8
2016-Aug-31 01:02 039 2 gusting 5 22.8
2016-Aug-31 00:47 032 23.3
2016-Aug-31 00:32 077 23.3
2016-Aug-31 00:17 201 4 gusting 12 23.9
2016-Aug-31 00:03 085 3 gusting 13 24.4
2016-Aug-30 23:47 082 3 gusting 9 25.0
2016-Aug-30 23:32 045 2 gusting 10 25.6
2016-Aug-30 23:17 020 4 gusting 12 25.6
2016-Aug-30 23:02 070 1 gusting 6 26.1
2016-Aug-30 22:47 019 25.6
2016-Aug-30 22:32 035 26.1
2016-Aug-30 22:17 089 26.7
2016-Aug-30 22:02 085 26.7
2016-Aug-30 21:47 017 4 gusting 7 26.1
2016-Aug-30 21:32 032 26.1
2016-Aug-30 21:17 355 26.7
2016-Aug-30 21:02 287 26.7
2016-Aug-30 20:47 295 27.2
2016-Aug-30 20:32 352 27.8
2016-Aug-30 20:17 295 28.3
2016-Aug-30 20:02 248 28.9
2016-Aug-30 19:47 249 28.9
2016-Aug-30 19:32 252 29.4
2016-Aug-30 19:17 229 29.4
2016-Aug-30 19:02 249 29.4
2016-Aug-30 18:47 210 30.0
2016-Aug-30 18:32 182 30.6
2016-Aug-30 18:17 245 31.1
2016-Aug-30 18:02 239 31.1
2016-Aug-30 17:47 163 0 gusting 6 31.7
2016-Aug-30 17:32 205 2 gusting 9 31.7
2016-Aug-30 17:17 210 31.7
2016-Aug-30 17:02 262 4 gusting 11 31.7
2016-Aug-30 16:47 214 4 gusting 6 31.7
2016-Aug-30 16:33 163 5 gusting 9 31.7
2016-Aug-30 16:17 143 31.7
2016-Aug-30 16:02 139 5 gusting 9 31.7
2016-Aug-30 15:47 150 0 gusting 4 32.2
2016-Aug-30 15:32 124 31.7
2016-Aug-30 15:17 163 1 gusting 6 31.1
2016-Aug-30 15:02 274 6 gusting 9 31.1
2016-Aug-30 14:47 006 0 gusting 6 31.1
2016-Aug-30 14:32 163 31.1
2016-Aug-30 14:17 342 30.0
2016-Aug-30 14:02 231 6 gusting 11 30.0
2016-Aug-30 13:47 207 29.4
2016-Aug-30 13:32 179 29.4
2016-Aug-30 13:17 340 29.4
2016-Aug-30 13:02 129 28.9
2016-Aug-30 12:47 288 28.3
2016-Aug-30 12:32 065 28.3
2016-Aug-30 12:17 232 28.3
2016-Aug-30 12:02 224 27.2
2016-Aug-30 11:47 255 26.1
2016-Aug-30 11:32 170 1 gusting 6 26.7
2016-Aug-30 11:17 121 25.6
2016-Aug-30 11:02 358 25.6
2016-Aug-30 10:47 124 24.4
2016-Aug-30 10:32 005 24.4
2016-Aug-30 10:17 120 23.9
2016-Aug-30 10:02 070 0 gusting 5 23.9
2016-Aug-30 09:47 342 22.2
2016-Aug-30 09:32 079 1 gusting 5 21.7
2016-Aug-30 09:17 057 2 gusting 8 20.6
2016-Aug-30 09:02 079 6 gusting 7 20.6
2016-Aug-30 08:47 016 20.6
2016-Aug-30 08:32 053 6 gusting 10 20.0
2016-Aug-30 08:17 338 3 gusting 6 19.4
2016-Aug-30 08:02 298 2 gusting 10 18.9
2016-Aug-30 07:47 057 2 gusting 8 18.9
2016-Aug-30 07:32 045 3 gusting 11 18.9
2016-Aug-30 07:17 097 18.9
2016-Aug-30 07:02 342 0 gusting 10 18.9
2016-Aug-30 06:47 321 5 gusting 10 18.9
2016-Aug-30 06:32 005 18.3
2016-Aug-30 06:17 063 6 gusting 12 18.3
2016-Aug-30 06:02 037 6 gusting 13 18.3
2016-Aug-30 05:47 036 6 gusting 11 18.3
2016-Aug-30 05:32 053 5 gusting 12 18.3
2016-Aug-30 05:17 066 11 gusting 15 18.3
2016-Aug-30 05:02 060 9 gusting 13 18.3
2016-Aug-30 04:47 065 6 gusting 9 18.3
2016-Aug-30 04:32 041 6 gusting 13 18.3
2016-Aug-30 04:17 035 8 gusting 12 18.3
2016-Aug-30 04:02 051 5 gusting 10 18.3
2016-Aug-30 03:47 051 4 gusting 13 18.3
2016-Aug-30 03:32 027 9 gusting 14 18.3
2016-Aug-30 03:17 032 6 gusting 10 18.3
2016-Aug-30 03:02 018 6 gusting 13 18.9
2016-Aug-30 02:47 041 5 gusting 11 18.9
2016-Aug-30 02:32 032 6 gusting 9 18.9
2016-Aug-30 02:17 049 6 gusting 12 19.4
2016-Aug-30 02:02 050 9 gusting 13 19.4
2016-Aug-30 01:47 036 8 gusting 13 19.4
2016-Aug-30 01:32 043 5 gusting 14 20.0
2016-Aug-30 01:17 011 7 gusting 13 20.0
2016-Aug-30 01:02 032 9 gusting 16 20.0
2016-Aug-30 00:47 050 3 gusting 16 20.6
2016-Aug-30 00:32 058 9 gusting 18 20.6
2016-Aug-30 00:17 027 8 gusting 16 21.1
2016-Aug-30 00:02 068 6 gusting 15 21.1
2016-Aug-29 23:48 057 6 gusting 14 21.7
2016-Aug-29 23:32 050 8 gusting 17 21.7
2016-Aug-29 23:17 039 7 gusting 16 22.2
2016-Aug-29 23:02 068 8 gusting 13 22.8
2016-Aug-29 22:48 039 9 gusting 16 23.3
2016-Aug-29 22:32 079 9 gusting 18 23.9
2016-Aug-29 22:17 064 10 gusting 18 24.4
2016-Aug-29 22:02 026 7 gusting 20 25.0
2016-Aug-29 21:47 030 12 gusting 19 25.6
2016-Aug-29 21:32 036 9 gusting 19 25.6
2016-Aug-29 21:17 029 10 gusting 16 25.6
2016-Aug-29 21:02 038 7 gusting 12 26.1